📊 Raw Sensor Data
Showing records 41301 to 41325 of 84,980 total
| ID | Distance (ft) | Battery V | Battery A | Int Temp (°F) | Int Humid (%) | Ext Temp (°F) | Solar V | RSSI | SNR | Time Stamp |
|---|---|---|---|---|---|---|---|---|---|---|
| 43692 | 15.1 | 4.01 | -5 | 66 | 54 | 65 | 0.10 | -67 | 8 | 06/16/2025 09:00 PM |
| 43691 | 15.2 | 4.01 | -5 | 69 | 55 | 66 | 0.80 | -68 | 8 | 06/16/2025 08:45 PM |
| 43690 | 15.2 | 3.92 | -40 | 73 | 56 | 69 | 3.30 | -67 | 8 | 06/16/2025 08:30 PM |
| 43689 | 15.2 | 4.02 | 0 | 77 | 55 | 72 | 4.50 | -70 | 8 | 06/16/2025 08:15 PM |
| 43688 | 15.3 | 4.03 | 0 | 82 | 54 | 76 | 4.50 | -70 | 8 | 06/16/2025 08:00 PM |
| 43687 | 15.3 | 4.04 | 8 | 86 | 53 | 80 | 4.50 | -67 | 8 | 06/16/2025 07:45 PM |
| 43686 | 15.3 | 3.98 | -15 | 87 | 53 | 81 | 4.60 | -67 | 8 | 06/16/2025 07:30 PM |
| 43685 | 15.4 | 4.06 | 0 | 90 | 52 | 81 | 4.50 | -68 | 7 | 06/16/2025 07:15 PM |
| 43684 | 15.4 | 4.01 | 23 | 92 | 51 | 85 | 4.60 | -68 | 8 | 06/16/2025 07:00 PM |
| 43683 | 15.4 | 4.00 | 0 | 93 | 51 | 85 | 5.10 | -69 | 7 | 06/16/2025 06:45 PM |
| 43682 | 15.4 | 4.00 | 0 | 95 | 50 | 87 | 5.10 | -68 | 7 | 06/16/2025 06:15 PM |
| 43681 | 15.4 | 4.12 | 0 | 95 | 49 | 86 | 5.10 | -71 | 7 | 06/16/2025 06:00 PM |
| 43680 | 15.4 | 4.02 | 0 | 96 | 49 | 87 | 5.10 | -70 | 8 | 06/16/2025 05:45 PM |
| 43679 | 15.4 | 4.04 | 0 | 96 | 48 | 88 | 5.10 | -70 | 8 | 06/16/2025 05:30 PM |
| 43678 | 15.4 | 4.00 | 0 | 97 | 48 | 90 | 5.10 | -70 | 8 | 06/16/2025 05:15 PM |
| 43677 | 15.4 | 4.00 | 0 | 97 | 47 | 89 | 5.10 | -69 | 7 | 06/16/2025 04:45 PM |
| 43676 | 15.4 | 4.00 | 0 | 98 | 46 | 86 | 5.10 | -71 | 8 | 06/16/2025 04:30 PM |
| 43675 | 15.4 | 4.00 | 0 | 99 | 44 | 90 | 5.10 | -69 | 8 | 06/16/2025 04:15 PM |
| 43674 | 15.4 | 4.03 | 0 | 98 | 44 | 90 | 5.10 | -68 | 8 | 06/16/2025 04:00 PM |
| 43673 | 15.4 | 4.00 | 0 | 98 | 44 | 89 | 5.10 | -67 | 8 | 06/16/2025 03:45 PM |
| 43672 | 15.4 | 4.08 | 0 | 98 | 43 | 89 | 5.10 | -69 | 7 | 06/16/2025 03:30 PM |
| 43671 | 15.4 | 4.00 | 0 | 98 | 42 | 91 | 5.10 | -70 | 8 | 06/16/2025 03:15 PM |
| 43670 | 15.4 | 4.05 | 0 | 96 | 42 | 89 | 5.10 | -70 | 8 | 06/16/2025 03:00 PM |
| 43669 | 15.4 | 4.00 | 0 | 94 | 41 | 86 | 5.10 | -67 | 8 | 06/16/2025 02:45 PM |
| 43668 | 15.4 | 4.10 | 0 | 93 | 41 | 84 | 5.10 | -68 | 8 | 06/16/2025 02:30 PM |